Temp
-10 -8 -7 -7 -7 -6 -6 -6 -7 -7 -8 -7 -7 -7 -7 -8 -8 -8 -8 -7 -8 -8 -7 -8 -8 -7 -7 -7 -7 -7 -7 -7 -7 -6 -7 -6 -6 -6 -6 -6 -6 -6 -6
-8 -8 -8 -7 -7 -7 -6 -6 -7 -7 -8 -7 -7 -7 -7 -7 -8 -8 -8 -8 -8 -8 -8 -8 -8 -7 -7 -8 -8 -7 -7 -7 -7 -7 -7 -7 -6 -6 -6 -6 -6 -6 -6
-8 -8 -9 -8 -7 -7 -6 -6 -7 -7 -7 -7 -7 -7 -7 -8 -8 -8 -8 -8 -8 -8 -7 -7 -7 -7 -7 -7 -7 -8 -8 -8 -8 -8 -7 -7 -7 -6 -6 -6 -7 -6 -6
-8 -8 -9 -8 -7 -6 -6 -6 -6 -7 -7 -7 -7 -7 -8 -8 -8 -8 -8 -8 -8 -7 -7 -7 -7 -7 -7 -7 -7 -7 -7 -8 -8 -8 -8 -8 -7 -7 -8 -8 -7 -8 -7
-8 -8 -8 -8 -7 -7 -6 -6 -6 -7 -7 -7 -7 -7 -8 -8 -8 -8 -8 -8 -7 -7 -7 -7 -7 -7 -7 -7 -8 -8 -8 -8 -7 -7 -8 -8 -8 -7 -7 -7 -7 -7 -7
-9 -8 -8 -8 -8 -8 -7 -7 -7 -7 -8 -7 -7 -7 -8 -8 -8 -8 -8 -7 -8 -8 -8 -8 -7 -7 -7 -7 -7 -8 -8 -8 -7 -7 -7 -7 -8 -7 -7 -7 -7 -7 -7
-9 -9 -9 -9 -9 -9 -8 -8 -8 -8 -8 -8 -8 -7 -7 -7 -7 -8 -8 -8 -8 -8 -8 -8 -7 -7 -7 -7 -7 -7 -7 -8 -8 -8 -7 -7 -7 -7 -7 -7 -7 -7 -7
-10 -10 -10 -10 -10 -10 -10 -8 -8 -8 -8 -8 -8 -8 -8 -8 -8 -8 -7 -7 -7 -7 -7 -7 -7 -7 -7 -7 -8 -8 -7 -7 -7 -7 -7 -7 -7 -7 -7 -7 -7 -7 -6
-9 -10 -10 -10 -9 -10 -9 -9 -9 -9 -8 -8 -8 -8 -8 -8 -8 -8 -7 -7 -7 -7 -7 -7 -7 -7 -7 -7 -7 -7 -7 -7 -7 -7 -7 -7 -7 -7 -7 -7 -7 -7 -7
-10 -9 -9 -9 -9 -9 -9 -8 -8 -9 -9 -9 -9 -9 -8 -8 -7 -7 -7 -6 -7 -7 -7 -7 -7 -7 -7 -8 -8 -7 -7 -6 -7 -8 -7 -6 -7 -7 -7 -7 -7 -7 -7
-9 -9 -10 -10 -11 -10 -10 -9 -9 -9 -9 -10 -9 -9 -9 -8 -8 -7 -8 -8 -8 -8 -7 -8 -8 -8 -7 -7 -7 -7 -7 -7 -7 -7 -8 -8 -7 -7 -7 -7 -7 -7 -6
-10 -11 -11 -10 -10 -11 -10 -10 -9 -9 -9 -9 -9 -10 -9 -8 -8 -9 -9 -8 -7 -7 -8 -8 -8 -7 -7 -7 -7 -8 -8 -8 -7 -7 -7 -7 -7 -7 -7 -7 -7 -7 -6
-10 -10 -10 -11 -11 -11 -10 -10 -9 -9 -9 -9 -9 -10 -9 -9 -9 -9 -8 -9 -8 -7 -7 -7 -8 -7 -8 -7 -7 -8 -8 -8 -7 -7 -7 -7 -8 -8 -8 -8 -8 -8 -8
-10 -10 -10 -10 -10 -10 -10 -10 -10 -9 -9 -8 -9 -9 -9 -10 -9 -9 -9 -9 -8 -8 -8 -7 -7 -7 -7 -8 -9 -8 -7 -7 -7 -7 -7 -8 -8 -8 -8 -7 -8 -8 -8
-11 -10 -10 -10 -10 -10 -9 -9 -9 -9 -9 -8 -8 -8 -9 -9 -9 -9 -9 -9 -8 -9 -8 -7 -6 -6 -7 -7 -8 -7 -7 -8 -7 -7 -8 -8 -8 -9 -8 -8 -8 -8 -8
-11 -11 -11 -10 -10 -9 -9 -9 -9 -9 -9 -8 -8 -9 -9 -9 -9 -8 -9 -9 -9 -9 -9 -8 -8 -8 -8 -8 -8 -8 -7 -7 -8 -7 -7 -8 -9 -9 -8 -9 -9 -8 -8
-11 -11 -11 -11 -10 -10 -9 -9 -9 -9 -9 -9 -9 -9 -9 -9 -9 -8 -9 -9 -8 -9 -8 -8 -8 -8 -7 -7 -7 -8 -8 -7 -7 -7 -8 -9 -9 -9 -9 -9 -9 -9 -9
-11 -11 -11 -11 -11 -10 -10 -9 -9 -9 -9 -9 -9 -9 -9 -9 -9 -9 -9 -8 -8 -9 -8 -8 -7 -7 -7 -7 -7 -7 -8 -8 -8 -8 -9 -9 -9 -10 -10 -10 -10 -9 -9
-11 -12 -12 -11 -11 -11 -10 -10 -9 -9 -9 -9 -9 -9 -9 -9 -9 -9 -9 -9 -9 -9 -8 -8 -8 -8 -8 -8 -8 -8 -9 -9 -9 -9 -10 -10 -9 -9 -9 -9 -10 -10 -9
-12 -12 -12 -12 -12 -11 -11 -10 -10 -9 -9 -9 -9 -9 -9 -9 -9 -9 -9 -10 -10 -9 -8 -8 -8 -8 -9 -10 -9 -10 -10 -10 -10 -10 -9 -10 -10 -10 -10 -10 -10 -10 -10
-13 -13 -12 -12 -12 -12 -12 -11 -10 -10 -9 -10 -9 -10 -10 -9 -9 -9 -10 -10 -10 -9 -9 -9 -9 -9 -10 -10 -11 -10 -10 -9 -9 -9 -9 -10 -10 -10 -10 -10 -10 -10 -10
-13 -13 -13 -12 -12 -12 -12 -11 -11 -10 -10 -10 -10 -10 -10 -9 -10 -10 -10 -10 -10 -10 -9 -9 -9 -10 -11 -10 -10 -9 -10 -9 -9 -9 -10 -10 -11 -11 -11 -11 -11 -10 -10
-12 -12 -12 -12 -12 -12 -11 -11 -11 -10 -10 -10 -10 -11 -10 -10 -10 -10 -10 -10 -10 -10 -10 -10 -10 -10 -10 -10 -10 -10 -10 -10 -10 -10 -10 -11 -11 -11 -11 -11 -10 -10 -11
-11 -12 -11 -11 -11 -11 -11 -11 -11 -11 -10 -10 -10 -10 -11 -11 -11 -10 -11 -10 -10 -11 -10 -11 -11 -11 -10 -10 -10 -10 -10 -11 -11 -11 -11 -11 -11 -11 -11 -11 -11 -11 -11
-10 -10 -11 -10 -11 -11 -11 -11 -11 -10 -10 -10 -10 -10 -11 -11 -11 -11 -11 -10 -10 -11 -11 -11 -11 -11 -11 -11 -11 -11 -11 -11 -12 -11 -11 -11 -11 -11 -11 -11 -11 -11 -11
-9 -9 -9 -10 -10 -10 -10 -10 -10 -10 -10 -10 -10 -11 -11 -11 -12 -11 -11 -11 -12 -12 -11 -11 -11 -11 -11 -11 -11 -11 -11 -11 -11 -11 -11 -11 -11 -12 -12 -11 -11 -11 -12
Height
5901 5910 5913 5917 5921 5921 5922 5920 5919 5919 5920 5921 5923 5923 5923 5924 5924 5926 5926 5927 5927 5925 5926 5927 5926 5926 5924 5922 5922 5921 5920 5920 5918 5916 5914 5913 5914 5913 5914 5914 5915 5915 5916
5897 5902 5906 5912 5916 5919 5920 5919 5917 5916 5917 5917 5919 5919 5919 5920 5921 5921 5921 5923 5924 5924 5925 5925 5924 5923 5920 5920 5921 5920 5919 5917 5916 5914 5913 5911 5910 5909 5911 5911 5913 5913 5913
5898 5901 5902 5907 5913 5916 5916 5916 5915 5914 5915 5914 5916 5917 5916 5916 5916 5917 5917 5920 5922 5922 5922 5923 5923 5921 5920 5919 5919 5918 5916 5914 5912 5911 5909 5909 5907 5906 5905 5906 5909 5911 5911
5900 5900 5902 5906 5907 5910 5911 5911 5912 5912 5913 5912 5914 5914 5914 5915 5915 5915 5916 5917 5919 5920 5920 5920 5921 5919 5918 5918 5918 5916 5915 5913 5912 5910 5908 5906 5905 5903 5902 5900 5907 5908 5909
5903 5903 5904 5905 5906 5908 5909 5907 5907 5908 5910 5910 5911 5912 5912 5913 5914 5914 5915 5915 5916 5917 5917 5917 5917 5916 5916 5915 5915 5914 5913 5912 5910 5909 5906 5904 5903 5903 5904 5904 5906 5908 5908
5898 5899 5903 5907 5907 5907 5907 5906 5905 5906 5908 5909 5910 5909 5910 5910 5910 5911 5913 5914 5915 5915 5915 5915 5914 5914 5913 5911 5910 5909 5909 5909 5908 5907 5906 5904 5902 5901 5904 5904 5904 5904 5905
5898 5897 5899 5901 5901 5903 5904 5905 5902 5900 5902 5906 5906 5906 5906 5906 5908 5910 5911 5912 5912 5913 5915 5915 5914 5914 5912 5911 5909 5906 5904 5903 5903 5903 5903 5902 5902 5901 5901 5902 5901 5901 5900
5893 5894 5895 5897 5897 5898 5899 5901 5899 5898 5900 5897 5900 5903 5904 5905 5907 5908 5908 5908 5910 5912 5913 5911 5911 5911 5910 5908 5906 5905 5904 5902 5900 5899 5898 5897 5898 5899 5898 5897 5897 5896 5896
5885 5885 5886 5889 5890 5892 5891 5893 5894 5893 5894 5896 5896 5896 5899 5901 5901 5901 5902 5903 5903 5903 5903 5903 5902 5902 5902 5903 5903 5902 5899 5898 5899 5897 5894 5892 5892 5892 5893 5893 5893 5892 5890
5876 5876 5875 5875 5879 5880 5882 5883 5885 5884 5885 5887 5888 5890 5892 5894 5894 5892 5894 5895 5895 5895 5894 5895 5894 5892 5892 5893 5893 5895 5895 5892 5892 5891 5890 5887 5887 5886 5886 5886 5885 5885 5884
5862 5863 5863 5863 5864 5865 5867 5869 5872 5874 5875 5878 5879 5883 5883 5885 5886 5887 5887 5887 5888 5889 5888 5888 5887 5885 5884 5884 5883 5885 5886 5885 5885 5884 5883 5881 5880 5879 5878 5878 5878 5877 5876
5849 5850 5850 5850 5849 5851 5854 5856 5858 5862 5864 5866 5868 5873 5873 5874 5876 5877 5879 5878 5877 5877 5876 5876 5876 5875 5876 5876 5875 5873 5873 5874 5875 5876 5875 5874 5872 5871 5870 5869 5868 5867 5865
5837 5837 5837 5836 5837 5838 5839 5842 5845 5848 5851 5854 5857 5859 5862 5860 5864 5867 5865 5864 5862 5861 5860 5859 5857 5860 5864 5867 5866 5863 5862 5863 5865 5864 5863 5861 5861 5861 5860 5860 5859 5859 5858
5821 5823 5823 5823 5824 5826 5827 5828 5831 5834 5836 5840 5844 5846 5849 5852 5855 5855 5854 5839 5843 5848 5843 5845 5841 5838 5848 5852 5852 5852 5853 5854 5854 5853 5852 5851 5850 5849 5849 5850 5849 5849 5850
5801 5804 5806 5808 5809 5811 5813 5815 5819 5821 5824 5826 5828 5832 5835 5840 5846 5844 5843 5840 5842 5844 5846 5839 5823 5825 5834 5835 5838 5841 5843 5843 5842 5841 5838 5840 5838 5838 5840 5841 5840 5839 5839
5785 5785 5787 5791 5792 5793 5798 5800 5804 5808 5811 5814 5815 5818 5822 5826 5830 5834 5834 5834 5837 5837 5836 5830 5828 5826 5826 5827 5829 5831 5832 5833 5831 5829 5827 5828 5829 5830 5830 5830 5828 5826 5826
5763 5769 5768 5770 5773 5777 5782 5786 5790 5794 5798 5800 5803 5805 5810 5814 5818 5819 5821 5823 5828 5831 5828 5830 5827 5828 5826 5825 5823 5824 5824 5824 5825 5824 5823 5821 5820 5820 5819 5818 5817 5815 5814
5742 5746 5751 5753 5757 5760 5764 5770 5776 5782 5785 5787 5790 5794 5798 5802 5805 5808 5809 5812 5816 5819 5821 5823 5820 5819 5818 5819 5818 5817 5817 5818 5818 5817 5815 5812 5811 5811 5809 5807 5806 5804 5802
5719 5722 5727 5734 5740 5743 5747 5754 5760 5767 5772 5775 5778 5782 5787 5790 5793 5797 5799 5803 5805 5808 5811 5811 5809 5810 5810 5810 5811 5810 5810 5809 5809 5808 5807 5805 5803 5801 5799 5797 5794 5792 5790
5697 5700 5705 5714 5721 5727 5731 5738 5744 5751 5758 5762 5766 5771 5775 5780 5782 5784 5787 5789 5792 5795 5797 5799 5800 5800 5800 5799 5800 5800 5801 5801 5801 5800 5798 5795 5792 5791 5789 5786 5784 5781 5778
5674 5679 5685 5692 5702 5710 5715 5722 5730 5737 5744 5750 5755 5759 5763 5768 5770 5772 5774 5778 5781 5784 5786 5789 5790 5790 5790 5791 5793 5794 5794 5792 5791 5788 5786 5785 5783 5779 5776 5774 5771 5768 5765
5663 5666 5671 5677 5686 5696 5703 5709 5716 5723 5731 5737 5743 5749 5754 5758 5760 5763 5766 5769 5772 5774 5776 5778 5779 5780 5783 5785 5786 5785 5783 5782 5781 5779 5777 5773 5769 5767 5765 5762 5759 5756 5752
5652 5654 5658 5666 5675 5683 5690 5697 5704 5710 5720 5726 5732 5741 5745 5749 5752 5753 5757 5761 5764 5766 5767 5768 5770 5774 5776 5777 5777 5775 5773 5772 5769 5766 5763 5760 5758 5756 5753 5749 5747 5744 5740
5637 5641 5648 5655 5663 5671 5679 5686 5693 5700 5709 5717 5725 5731 5736 5739 5742 5746 5749 5753 5755 5757 5760 5763 5765 5767 5768 5767 5766 5765 5762 5758 5757 5755 5752 5750 5748 5745 5741 5738 5735 5730 5725
5619 5625 5632 5641 5651 5659 5667 5674 5684 5693 5702 5710 5717 5723 5726 5730 5734 5738 5742 5745 5747 5749 5754 5757 5757 5758 5758 5757 5755 5752 5750 5749 5747 5745 5743 5741 5738 5733 5730 5726 5719 5714 5710
5602 5610 5620 5630 5640 5649 5659 5669 5679 5688 5696 5704 5710 5714 5717 5722 5727 5732 5736 5737 5740 5745 5748 5749 5749 5749 5749 5747 5745 5744 5742 5740 5738 5736 5734 5731 5726 5721 5716 5710 5704 5698 5693
Wind_Speed
22 13 9 16 14 14 15 14 13 12 13 12 12 11 11 11 13 12 11 8 13 2 5 4 6 9 12 13 11 9 10 10 11 11 17 21 16 17 18 17 13 11 10
19 14 6 7 13 18 16 16 11 11 12 11 10 8 9 10 13 14 12 9 7 5 5 3 6 9 9 8 7 9 11 12 12 13 14 14 16 21 20 11 14 13 12
15 13 10 12 16 19 21 17 14 12 12 11 8 6 5 6 6 7 10 9 7 6 4 3 4 5 6 6 6 7 9 12 13 13 15 14 10 12 30 20 14 10 9
8 9 13 19 20 22 21 21 19 15 15 13 10 9 7 6 7 8 9 9 9 6 5 3 2 2 3 4 5 6 10 13 14 15 16 16 12 9 6 2 8 8 11
14 15 18 19 19 24 23 23 20 19 18 17 15 13 11 11 11 11 12 12 10 8 6 5 4 4 3 3 3 4 6 9 13 16 16 17 15 11 7 7 9 10 12
16 19 18 19 19 20 20 21 19 18 19 19 19 16 15 16 16 14 13 12 11 11 10 9 9 8 7 7 7 6 5 4 6 10 15 17 15 8 10 11 11 13 13
27 26 23 21 21 21 23 23 21 21 20 19 19 19 19 18 17 16 16 15 15 14 12 11 11 11 11 11 11 9 7 6 6 6 9 12 10 9 7 8 10 12 13
36 31 27 25 31 21 31 26 26 22 20 20 20 21 20 19 16 17 18 17 15 14 13 13 13 13 15 15 15 14 13 13 10 10 10 5 5 8 10 10 8 11 14
37 33 26 26 29 27 19 27 27 25 24 24 25 25 23 22 22 23 23 21 20 19 20 19 18 19 19 18 18 18 18 19 16 15 16 15 13 13 13 15 15 16 18
37 35 43 40 35 32 30 33 33 34 32 30 30 31 30 29 32 30 29 29 28 27 27 26 26 28 26 23 21 22 24 23 21 20 18 21 20 20 19 18 20 21 21
39 38 40 41 40 41 38 35 36 36 36 36 36 34 33 33 35 38 35 34 34 34 34 32 33 33 33 29 28 29 29 30 28 28 27 25 26 26 24 24 26 27 26
42 42 40 45 47 48 48 46 42 40 40 41 44 44 40 39 42 42 42 43 38 40 41 42 43 43 42 39 34 33 33 33 33 31 32 33 32 33 31 30 30 30 31
45 46 46 50 50 51 53 53 51 49 44 44 47 49 47 50 46 46 48 54 49 50 48 52 54 51 51 47 41 35 35 37 33 33 37 39 42 41 39 35 33 34 36
53 53 52 48 47 49 50 49 49 50 50 47 48 50 54 53 50 51 54 64 50 40 52 52 63 65 55 52 43 40 32 32 39 42 44 38 36 43 39 37 33 33 36
54 55 54 55 52 50 46 51 53 51 50 46 45 47 49 53 55 55 55 59 55 38 45 45 31 43 37 42 50 41 40 40 36 39 41 44 40 33 35 33 32 34 38
45 50 52 54 55 57 50 48 50 50 50 46 40 41 43 45 47 49 52 50 44 40 32 28 32 19 12 12 17 23 30 31 26 28 30 29 28 29 30 30 33 35 40
47 43 44 48 54 52 54 50 48 50 49 45 40 40 39 39 43 45 46 44 41 35 28 23 21 20 15 16 19 23 24 23 25 27 25 25 27 28 31 33 35 36 39
54 52 51 50 45 51 51 54 50 45 45 45 42 41 37 35 37 40 42 39 38 33 29 26 23 21 24 26 26 25 27 30 31 28 30 31 31 33 36 37 40 45 49
60 56 54 50 51 47 51 48 52 48 43 44 42 41 37 33 33 36 37 35 35 34 31 29 28 28 28 30 29 30 29 34 36 33 31 31 29 31 34 37 39 41 42
58 60 60 55 53 49 46 47 46 46 42 42 41 39 37 32 31 32 35 35 33 31 32 30 32 31 32 28 32 29 28 29 27 27 29 31 34 38 40 40 40 41 43
48 54 51 46 50 47 45 43 43 46 43 41 40 38 34 31 32 34 34 35 34 32 32 31 34 31 31 28 26 26 26 26 28 30 31 34 37 39 42 43 42 43 45
28 35 42 44 46 43 40 39 41 46 44 41 41 36 32 31 30 31 30 33 35 33 29 31 33 30 25 23 25 25 26 29 31 33 36 39 41 41 42 42 43 44 45
32 29 32 39 42 41 40 39 40 45 42 42 39 33 31 29 29 32 32 33 33 30 29 26 22 21 22 24 27 29 30 34 36 38 40 40 38 40 42 42 43 43 46
39 36 35 38 40 40 40 38 40 42 39 40 36 32 30 29 30 31 34 34 31 30 27 23 20 20 24 27 30 33 34 36 38 40 40 40 41 40 40 44 45 45 48
37 35 36 39 42 43 43 40 40 39 37 35 34 32 33 32 32 34 33 31 28 28 24 22 24 25 29 31 33 35 38 38 38 37 37 38 40 41 43 45 47 49 52
28 25 29 29 30 29 30 32 33 34 35 33 33 33 36 33 33 33 33 35 27 25 25 26 28 31 33 32 33 32 31 31 33 35 37 39 41 44 46 49 52 54 56
Wind_Direction
222 239 260 280 266 272 269 259 248 231 221 222 230 236 235 238 241 247 245 231 264 337 278 277 279 303 289 266 265 274 284 291 303 305 263 265 263 257 252 242 252 269 261
231 214 217 245 264 261 260 252 241 230 214 212 217 226 233 234 230 234 227 217 245 254 256 292 296 325 319 274 276 295 303 302 300 299 301 303 267 261 242 230 240 250 260
246 216 234 243 245 246 248 249 243 231 212 188 192 200 208 216 216 203 206 204 215 209 250 279 306 337 349 6 347 334 342 337 329 310 293 290 299 280 245 232 225 242 255
250 222 225 232 239 240 237 230 221 219 212 203 198 198 206 214 201 194 194 196 200 222 231 247 253 291 307 337 338 352 349 349 344 333 322 306 289 308 338 272 239 239 266
256 256 249 248 243 242 239 231 222 220 222 223 221 223 223 221 225 217 204 203 216 224 237 234 230 236 249 260 296 314 354 1 5 6 356 347 312 266 260 269 272 272 284
271 259 265 264 251 253 247 238 231 229 232 231 233 227 231 223 220 221 223 229 235 245 250 252 246 246 246 249 259 267 285 321 353 1 8 4 358 318 284 284 284 287 287
254 252 253 257 257 249 249 241 229 223 224 237 241 237 235 233 231 232 234 238 246 254 268 283 286 280 268 266 261 254 254 254 284 320 344 358 350 355 344 320 306 294 289
254 249 253 260 266 282 255 240 238 234 234 234 237 246 249 249 253 250 246 246 255 261 268 271 274 276 278 277 279 283 282 275 276 286 291 294 294 307 305 298 297 298 306
238 241 245 259 253 257 265 241 251 246 245 247 251 246 245 250 248 250 249 250 251 252 248 248 251 255 260 268 275 279 281 280 279 273 280 279 277 280 288 292 296 292 293
225 254 266 274 267 262 252 249 250 257 251 251 248 253 254 253 253 249 248 248 246 246 247 250 253 256 257 261 267 269 273 271 271 269 259 265 272 273 276 274 277 280 284
262 263 263 265 262 262 259 254 252 247 251 252 256 250 253 257 259 260 257 255 260 264 263 262 262 259 257 256 260 267 269 269 268 268 269 262 262 265 266 268 271 276 279
266 267 266 265 263 257 258 259 255 250 250 249 249 252 255 254 257 268 274 262 260 259 261 263 261 258 257 256 256 260 259 259 262 267 271 270 269 269 266 265 268 269 270
258 260 259 257 259 264 261 261 263 264 258 253 251 251 254 260 260 268 272 269 266 256 258 260 257 257 258 257 254 254 257 261 260 269 277 274 266 270 265 265 268 274 278
257 257 260 258 256 255 259 262 261 263 268 260 254 252 250 252 256 261 268 274 274 286 288 277 266 259 253 258 244 250 258 265 268 270 276 273 272 286 258 262 272 278 283
258 258 258 259 260 257 257 255 257 260 263 263 259 254 249 249 251 255 266 276 283 298 300 307 290 264 255 260 254 256 260 269 270 271 274 280 274 265 259 269 278 283 286
255 252 251 250 254 257 257 252 250 255 259 261 262 262 258 252 250 255 260 267 277 287 303 303 310 326 277 252 251 259 265 267 257 270 271 266 260 256 263 272 276 278 282
260 256 256 250 243 249 252 250 247 250 254 258 260 265 264 257 253 251 256 262 266 275 285 296 304 321 289 290 278 261 264 255 274 276 263 249 253 262 269 273 276 278 283
260 260 254 253 253 243 243 244 244 246 251 254 257 260 262 257 252 250 253 257 263 267 271 276 282 283 282 282 286 266 264 267 271 264 260 261 268 274 278 282 284 287 288
258 258 251 249 249 249 242 241 242 245 245 248 251 255 257 259 254 250 252 253 255 259 263 270 278 281 284 282 279 271 264 265 265 266 271 276 283 290 293 290 286 284 285
254 253 256 255 247 244 244 238 238 239 240 242 245 249 252 256 254 251 250 251 253 257 260 265 270 273 286 274 264 260 258 260 270 279 284 292 293 293 293 289 285 282 281
259 250 249 243 238 237 238 230 233 235 236 237 240 243 246 248 248 247 246 247 251 253 258 263 263 270 281 262 250 258 267 275 279 283 287 287 287 288 287 284 283 284 287
263 253 243 235 229 230 232 228 228 230 231 233 235 237 240 242 245 245 244 246 250 254 257 259 266 266 254 251 260 267 272 277 279 280 281 288 293 291 287 287 288 289 290
259 249 236 227 228 228 230 229 227 228 227 228 230 233 234 237 237 240 243 248 252 251 256 251 233 232 244 255 263 269 273 275 281 285 289 293 291 289 290 293 294 294 295
256 246 233 229 229 230 232 234 230 225 225 225 225 228 229 229 236 239 242 241 244 252 243 224 233 246 258 266 272 274 279 284 287 290 289 289 290 293 295 297 296 297 299
251 239 230 226 229 232 232 230 222 220 221 222 221 224 224 226 226 235 237 239 243 219 219 236 245 255 265 271 275 279 283 287 288 292 292 292 293 294 294 296 299 301 301
239 218 211 211 209 215 215 214 213 215 219 219 222 223 222 225 231 241 236 237 211 217 232 243 254 262 270 276 284 288 289 288 290 291 290 291 295 298 300 303 304 304 303